CW9887 Weather Reports


Display with metric or nautical units.
time (UTC)temp
F
wind
direction
speed
MPH
gust
MPH
rain 1hr
in
rain 24hr
in
rain mn
in
humidity
%
barometer
mb
20210923115745 67 202 3.0 0.0 0.00 0.00 0.00 97 1018.9
20210923114750 67 159 3.0 0.0 0.00 0.00 0.00 98 1018.9
20210923113752 67 154 3.0 0.0 0.00 0.00 0.00 98 1018.9
20210923112754 67 200 3.0 0.0 0.00 0.00 0.00 98 1018.8
20210923111755 67 187 3.0 0.0 0.00 0.00 0.00 98 1018.9
20210923110756 67 171 3.0 0.0 0.00 0.00 0.00 98 1018.8
20210923105753 67 122 2.0 0.0 0.00 0.00 0.00 98 1018.6
20210923104754 66 140 3.0 0.0 0.00 0.00 0.00 99 1018.7
20210923103749 66 85 3.0 0.0 0.00 0.00 0.00 99 1018.7
20210923102746 66 119 3.0 0.0 0.00 0.00 0.00 99 1018.6
20210923101745 66 117 3.0 0.0 0.00 0.00 0.00 99 1018.6
20210923100743 66 150 3.0 0.0 0.00 0.00 0.00 99 1018.6
20210923095740 66 86 2.0 0.0 0.00 0.00 0.00 99 1018.6
20210923094742 66 145 2.0 0.0 0.00 0.00 0.00 98 1018.7
20210923093758 66 116 2.0 0.0 0.00 0.00 0.00 98 1018.7
20210923092754 66 146 2.0 0.0 0.00 0.00 0.00 98 1018.8
20210923091755 66 123 1.0 0.0 0.00 0.00 0.00 98 1018.6
20210923090759 66 142 2.0 0.0 0.00 0.00 0.00 98 1018.8
20210923085752 66 121 2.0 0.0 0.00 0.00 0.00 98 1018.8
20210923084754 66 296 2.0 0.0 0.00 0.00 0.00 98 1018.8
20210923083751 67 150 2.0 0.0 0.00 0.00 0.00 98 1018.9
20210923082745 67 237 2.0 0.0 0.00 0.00 0.00 98 1018.9
20210923081747 67 174 2.0 0.0 0.00 0.00 0.00 98 1018.9
20210923080742 67 188 2.0 0.0 0.00 0.00 0.00 98 1019.0
20210923075759 67 128 2.0 0.0 0.00 0.00 0.00 98 1018.9
20210923074753 67 139 2.0 0.0 0.00 0.00 0.00 98 1018.9
20210923073749 67 60 2.0 0.0 0.00 0.00 0.00 98 1018.9
20210923072744 67 144 2.0 0.0 0.00 0.00 0.00 98 1019.0
20210923071757 67 167 2.0 0.0 0.00 0.00 0.00 98 1019.0
20210923070754 67 202 2.0 0.0 0.00 0.00 0.00 98 1019.1
20210923065751 67 152 2.0 0.0 0.00 0.00 0.00 98 1019.1
20210923064754 67 222 2.0 0.0 0.00 0.00 0.00 98 1019.1
20210923063757 67 177 2.0 0.0 0.00 0.00 0.00 98 1019.1
20210923062755 67 44 2.0 0.0 0.00 0.00 0.00 98 1019.1
20210923061754 67 144 2.0 0.0 0.00 0.00 0.00 98 1019.1
20210923060754 67 161 2.0 0.0 0.00 0.00 0.00 98 1019.2
20210923055750 67 288 2.0 0.0 0.00 0.00 0.00 99 1019.2
20210923054748 67 243 2.0 0.0 0.00 0.00 0.00 99 1019.3
20210923053744 67 126 2.0 0.0 0.00 0.00 0.00 99 1019.3
20210923052741 67 130 2.0 0.0 0.00 0.00 0.00 99 1019.3
20210923051745 67 171 2.0 0.0 0.00 0.00 0.00 99 1019.3
20210923050742 67 144 2.0 0.0 0.00 0.00 0.00 99 1019.4
20210923045738 67 163 2.0 0.0 0.00 0.00 0.00 99 1019.4
20210923044742 67 247 2.0 0.0 0.00 0.00 0.00 99 1019.4
20210923043741 67 247 2.0 0.0 0.00 0.00 0.00 99 1019.5
20210923042743 67 146 2.0 0.0 0.00 0.00 0.00 99 1019.6
20210923041745 67 146 2.0 0.0 0.00 0.00 0.00 99 1019.6
20210923040815 67 157 2.0 0.0 0.00 0.00 0.00 99 1019.5
20210923035745 67 222 2.0 0.0 0.00 0.00 0.16 99 1019.4
20210923034748 67 41 2.0 0.0 0.00 0.00 0.16 99 1019.4
20210923033742 67 233 2.0 0.0 0.00 0.00 0.16 99 1019.2
20210923033010 67 144 2.0 0.0 0.00 0.00 0.16 99 1018.7
20210923032739 67 153 2.0 0.0 0.00 0.00 0.16 99 1019.2
20210923031800 68 138 2.0 0.0 0.00 0.00 0.16 99 1019.2
20210923030757 68 160 2.0 0.0 0.00 0.00 0.16 99 1019.2
20210923025754 68 222 2.0 0.0 0.00 0.00 0.15 99 1019.3
20210923024756 68 280 2.0 0.0 0.00 0.00 0.15 99 1019.3
20210923023754 68 141 2.0 0.0 0.00 0.00 0.15 99 1019.4
20210923022747 68 145 3.0 0.0 0.00 0.00 0.15 99 1019.4
20210923021748 68 221 2.0 0.0 0.00 0.00 0.15 99 1019.3
20210923020745 68 142 3.0 0.0 0.00 0.00 0.15 99 1019.3
20210923015744 68 226 2.0 0.0 0.00 0.00 0.15 100 1019.1
20210923014744 68 138 2.0 0.0 0.00 0.00 0.15 100 1019.0
20210923014507 67 120 2.0 0.0 0.00 0.00 0.15 100 1018.6
20210923013743 68 120 2.0 0.0 0.00 0.00 0.15 100 1019.2
20210923012743 68 150 2.0 0.0 0.00 0.00 0.15 100 1019.1
20210923011746 68 121 2.0 0.0 0.00 0.00 0.15 100 1019.1
20210923010743 68 157 1.0 0.0 0.00 0.00 0.15 100 1019.0
20210923005740 68 96 2.0 0.0 0.00 0.00 0.15 99 1018.9
20210923004743 68 160 1.0 0.0 0.00 0.00 0.15 99 1018.9
20210923003800 68 161 2.0 0.0 0.00 0.00 0.15 99 1019.0
20210923002756 68 207 2.0 0.0 0.00 0.00 0.15 99 1019.0
20210923001758 68 171 1.0 0.0 0.00 0.00 0.15 99 1018.9
20210923000755 68 232 2.0 0.0 0.00 0.00 0.15 99 1019.0
20210922235753 68 360 2.0 0.0 0.00 0.00 0.15 99 1018.8
20210922234754 68 155 2.0 0.0 0.00 0.00 0.15 99 1018.7
20210922233758 68 150 2.0 0.0 0.00 0.00 0.15 99 1018.6
20210922232752 68 119 2.0 0.0 0.00 0.00 0.15 99 1018.6
20210922231754 68 183 2.0 0.0 0.00 0.00 0.15 99 1018.5
20210922230752 68 171 3.0 0.0 0.00 0.00 0.15 99 1018.5
20210922225747 68 240 3.0 0.0 0.00 0.00 0.15 99 1018.5
20210922224745 68 160 3.0 0.0 0.00 0.00 0.15 99 1018.5
20210922223744 68 144 2.0 0.0 0.00 0.00 0.15 99 1018.4
20210922222741 68 155 3.0 0.0 0.00 0.00 0.14 99 1018.5
20210922221801 68 133 2.0 0.0 0.00 0.00 0.13 99 1018.5
20210922220758 68 161 2.0 0.0 0.00 0.00 0.11 99 1018.5
20210922215755 68 148 3.0 0.0 0.00 0.00 0.11 99 1018.5
20210922214757 68 153 3.0 0.0 0.00 0.00 0.11 99 1018.5
20210922214522 68 146 3.0 0.0 0.00 0.00 0.11 99 1018.1
20210922213751 68 95 2.0 0.0 0.00 0.00 0.11 99 1018.5
20210922212746 68 148 1.0 0.0 0.00 0.00 0.11 99 1018.5
20210922211752 68 136 2.0 0.0 0.00 0.00 0.11 99 1018.5
20210922210749 68 132 2.0 0.0 0.00 0.00 0.10 99 1018.5
20210922205744 68 126 1.0 0.0 0.00 0.00 0.09 99 1018.6
20210922204744 68 207 2.0 0.0 0.00 0.00 0.07 98 1018.6
20210922203741 69 148 2.0 0.0 0.00 0.00 0.07 98 1018.7
20210922203010 68 132 3.0 0.0 0.00 0.00 0.07 99 1018.4
20210922202737 69 123 3.0 0.0 0.00 0.00 0.07 99 1018.8
20210922201800 69 154 2.0 0.0 0.00 0.00 0.07 99 1019.0
20210922201514 68 91 2.0 0.0 0.00 0.00 0.07 99 1018.6
20210922200757 68 150 2.0 0.0 0.00 0.00 0.07 98 1019.0
20210922195753 68 147 2.0 0.0 0.00 0.00 0.06 98 1019.1
20210922194753 69 130 2.0 0.0 0.00 0.00 0.06 98 1019.2
20210922193747 68 148 2.0 0.0 0.00 0.00 0.06 98 1019.3
20210922192745 69 211 2.0 0.0 0.00 0.00 0.06 98 1019.4
20210922191746 69 157 2.0 0.0 0.00 0.00 0.06 98 1019.5
20210922190743 69 150 2.0 0.0 0.00 0.00 0.06 98 1019.5
20210922185739 69 119 1.0 0.0 0.00 0.00 0.05 97 1019.5
20210922184800 69 128 1.0 0.0 0.00 0.00 0.03 97 1019.6
20210922183752 69 126 1.0 0.0 0.00 0.00 0.03 97 1019.7
20210922182751 69 204 1.0 0.0 0.00 0.00 0.03 97 1020.0
20210922181750 69 207 1.0 0.0 0.00 0.00 0.03 97 1020.0
20210922180748 69 211 2.0 0.0 0.00 0.00 0.03 96 1020.1
20210922175744 69 268 1.0 0.0 0.00 0.00 0.02 96 1020.1
20210922174802 69 232 2.0 0.0 0.00 0.00 0.02 94 1020.3
20210922173756 70 160 2.0 0.0 0.00 0.00 0.02 93 1020.5
20210922172752 71 167 2.0 0.0 0.00 0.00 0.02 91 1020.5
20210922171751 71 202 1.0 0.0 0.00 0.00 0.02 90 1020.6
20210922170748 72 144 1.0 0.0 0.00 0.00 0.01 88 1020.8
20210922165744 72 171 2.0 0.0 0.00 0.00 0.01 86 1020.8
20210922164747 72 205 3.0 0.0 0.00 0.00 0.01 87 1020.9
20210922163746 73 207 2.0 0.0 0.00 0.00 0.01 87 1020.9
20210922162744 72 242 4.0 0.0 0.00 0.00 0.01 88 1021.0
20210922161749 72 182 4.0 0.0 0.00 0.00 0.01 90 1021.4
20210922160742 70 219 3.0 0.0 0.00 0.00 0.01 93 1021.6
20210922155757 70 74 4.0 0.0 0.00 0.00 0.01 97 1021.6
20210922154754 69 223 3.0 0.0 0.00 0.00 0.01 98 1021.8
20210922153751 68 172 3.0 0.0 0.00 0.00 0.01 99 1022.0
20210922152745 68 150 2.0 0.0 0.00 0.00 0.01 100 1022.2
20210922151802 67 163 2.0 0.0 0.00 0.00 0.01 100 1022.3
20210922150755 66 215 2.0 0.0 0.00 0.00 0.01 100 1022.4
20210922145749 66 170 2.0 0.0 0.00 0.00 0.01 100 1022.3
20210922144747 66 184 2.0 0.0 0.00 0.00 0.01 100 1022.5
20210922143745 66 180 3.0 0.0 0.00 0.00 0.01 100 1022.6
20210922142740 66 215 2.0 0.0 0.00 0.00 0.01 100 1022.7
20210922141800 65 190 3.0 0.0 0.00 0.00 0.01 100 1022.7
20210922140757 65 183 2.0 0.0 0.00 0.00 0.01 100 1022.6
20210922135754 65 234 2.0 0.0 0.00 0.00 0.01 100 1022.7
20210922134756 65 242 2.0 0.0 0.00 0.00 0.01 100 1022.9
20210922133756 65 189 3.0 0.0 0.00 0.00 0.01 100 1023.0
20210922132750 65 144 2.0 0.0 0.00 0.00 0.01 100 1022.9
20210922131751 64 232 2.0 0.0 0.00 0.00 0.01 100 1023.0
20210922130748 64 207 1.0 0.0 0.00 0.00 0.01 100 1023.1
20210922125744 64 211 2.0 0.0 0.00 0.00 0.01 100 1022.9
20210922124741 64 204 1.0 0.0 0.00 0.00 0.01 100 1022.9
20210922124505 63 204 1.0 0.0 0.00 0.00 0.01 100 1022.7
20210922123757 64 158 1.0 0.0 0.00 0.00 0.01 100 1022.9
20210922122755 63 282 1.0 0.0 0.00 0.00 0.01 100 1022.8
20210922121755 63 195 1.0 0.0 0.00 0.00 0.01 100 1022.9
20210922120752 63 220 1.0 0.0 0.00 0.00 0.01 100 1022.8